Time,TemperatureF,DewpointF,PressureIn,WindDirection,WindDirectionDegrees,WindSpeedMPH,WindSpeedGustMPH,Humidity,HourlyPrecipIn,Conditions,Clouds,dailyrainin,SoftwareType,DateUTC
2013-06-24 00:05:00,71.3,67.2,29.95,West,270,6.0,11.0,87,0.00,,,-99.99,WeatherLink 5.5,2013-06-24 04:05:00,
2013-06-24 01:05:00,71.3,67.2,29.95,West,270,6.0,11.0,87,0.00,,,-99.99,WeatherLink 5.5,2013-06-24 05:05:00,
2013-06-24 02:05:00,-999.0,-99.9,29.92,WSW,247,4.0,6.0,-999,0.00,,,-99.99,WeatherLink 5.5,2013-06-24 06:05:00,
2013-06-24 03:00:00,-999.0,-99.9,29.92,North,-999,0.0,0.0,-999,0.00,,,-99.99,WeatherLink 5.5,2013-06-24 07:00:00,
2013-06-24 04:05:00,71.5,66.8,29.92,West,270,6.0,10.0,85,0.00,,,-99.99,WeatherLink 5.5,2013-06-24 08:05:00,
2013-06-24 05:05:00,-999.0,-99.9,29.90,West,270,6.0,8.0,-999,0.00,,,-99.99,WeatherLink 5.5,2013-06-24 09:05:00,
2013-06-24 06:00:00,-999.0,-99.9,29.90,WSW,247,8.0,10.0,-999,0.00,,,-99.99,WeatherLink 5.5,2013-06-24 10:00:00,
2013-06-24 07:05:00,71.8,67.0,29.93,West,270,7.0,12.0,85,0.00,,,-99.99,WeatherLink 5.5,2013-06-24 11:05:00,
2013-06-24 08:05:00,72.1,66.6,29.94,West,270,8.0,14.0,83,0.00,,,-99.99,WeatherLink 5.5,2013-06-24 12:05:00,
2013-06-24 09:05:00,73.9,67.3,29.95,West,270,7.0,12.0,80,0.00,,,-99.99,WeatherLink 5.5,2013-06-24 13:05:00,
2013-06-24 10:05:00,79.0,69.2,29.94,West,270,6.0,12.0,72,0.00,,,-99.99,WeatherLink 5.5,2013-06-24 14:05:00,
2013-06-24 11:05:00,84.9,69.0,29.94,NW,315,6.0,13.0,59,0.00,,,-99.99,WeatherLink 5.5,2013-06-24 15:05:00,
2013-06-24 12:05:00,87.4,69.3,29.93,NW,315,5.0,11.0,55,0.00,,,-99.99,WeatherLink 5.5,2013-06-24 16:05:00,
2013-06-24 13:05:00,89.7,70.3,29.93,West,270,5.0,13.0,53,0.00,,,-99.99,WeatherLink 5.5,2013-06-24 17:05:00,
2013-06-24 14:05:00,90.1,69.5,29.91,West,270,6.0,14.0,51,0.00,,,-99.99,WeatherLink 5.5,2013-06-24 18:05:00,
2013-06-24 15:00:00,90.3,69.7,29.88,West,270,5.0,14.0,51,0.00,,,-99.99,WeatherLink 5.5,2013-06-24 19:00:00,
2013-06-24 16:05:00,92.7,70.1,29.87,West,270,3.0,11.0,48,0.00,,,-99.99,WeatherLink 5.5,2013-06-24 20:05:00,
2013-06-24 17:05:00,89.3,69.4,29.83,WSW,247,5.0,13.0,52,0.00,,,-99.99,WeatherLink 5.5,2013-06-24 21:05:00,
2013-06-24 18:05:00,85.5,67.5,29.84,WSW,247,7.0,19.0,55,0.00,,,-99.99,WeatherLink 5.5,2013-06-24 22:05:00,
2013-06-24 19:00:00,66.9,63.9,29.88,North,0,8.0,27.0,90,0.77,,,-99.99,WeatherLink 5.5,2013-06-24 23:00:00,
2013-06-24 20:05:00,68.9,64.5,29.87,SE,135,4.0,10.0,86,0.19,,,-99.99,WeatherLink 5.5,2013-06-25 00:05:00,
2013-06-24 21:05:00,67.8,65.1,29.95,WSW,247,5.0,14.0,91,0.02,,,-99.99,WeatherLink 5.5,2013-06-25 01:05:00,
2013-06-24 22:05:00,67.3,65.5,29.89,East,90,3.0,8.0,94,0.04,,,-99.99,WeatherLink 5.5,2013-06-25 02:05:00,
2013-06-24 23:00:00,66.6,63.9,29.88,East,90,1.0,7.0,91,0.00,,,-99.99,WeatherLink 5.5,2013-06-25 03:00:00,